Regional Weather Roundup
Issued by NWS

Home | Current Version | Previous Version | Text Only | Print | Product List | Glossary On
Versions: 1 2 3 4 5 6 7 8 9 10 11 12 13 14 15 16 17 18 19 20 21 22 23 24 25 26 27 28 29 30 31 32 33 34 35 36 37 38 39 40 41 42 43 44 45 46 47 48 49 50
000
ASUS43 KMPX 292001
RWRMN
WEATHER ROUNDUP FOR MINNESOTA
NATIONAL WEATHER SERVICE TWIN CITIES/CHANHASSEN MN
300 PM CDT MON MAY 29 2017


NOTE: "FAIR" INDICATES FEW OR NO CLOUDS BELOW 12,000 FEET WITH NO
SIGNIFICANT WEATHER AND/OR OBSTRUCTIONS TO VISIBILITY. N/A MEANS
CURRENT SKY AND/OR WEATHER CONDITIONS ARE NOT AVAILABLE.

MNZ060>063-068>070-292100-
   Twin Cities Metro

CITY           SKY/WX    TMP DP  RH WIND       PRES   REMARKS
TWIN CITIES    PTSUNNY   63  48  58 NW18G25   29.82S
ST PAUL        LGT RAIN  61  51  70 W18G26    29.82R
CRYSTAL        PTSUNNY   61  49  64 W13       29.81S
BLAINE         PTSUNNY   64  50  59 W13G23    29.81R
LAKEVILLE      MOSUNNY   63  48  59 W16G24    29.83R
EDEN PRAIRIE   PTSUNNY   66  48  52 NW17G25   29.82S
SOUTH ST PAUL  PTSUNNY   62  53  72 W18       29.82S
LAKE ELMO      PTSUNNY   63  50  63 W16       29.81S
$$
MNZ001>005-007-008-013>017-022>024-027-028-292100-
   Northwest Minnesota

CITY           SKY/WX    TMP DP  RH WIND       PRES   REMARKS
BEMIDJI        CLOUDY    54  44  68 NW15      29.83R
HALLOCK        CLOUDY    54  45  71 NW20G28   29.85S
ROSEAU         CLOUDY    55  45  67 NW12      29.81S
WARROAD        CLOUDY    54  43  66 NW17G23   29.80S
CROOKSTON      DRIZZLE   54  50  87 NW18G28   29.87S
FOSSTON        PTSUNNY   55  46  71 NW18      29.85S
DETROIT LAKES  CLOUDY    55  46  71 NW15G21   29.88F
MOORHEAD       PTSUNNY   57  48  72 NW16      29.90R
PARK RAPIDS    CLOUDY    57  43  59 NW20G25   29.84
MAHNOMEN       LGT RAIN  54  49  81 NW18G24   29.86S
$$
MNZ006-009>011-018-025>026-292100-
   North Central Minnesota

CITY           SKY/WX    TMP DP  RH WIND       PRES   REMARKS
BAUDETTE       CLOUDY    54  41  61 NW21G26   29.77
FLAG ISLAND    CLOUDY    52  39  62 NW21      29.77R
INTL FALLS     CLOUDY    54  44  69 NW17G28   29.73R
WASKISH        CLOUDY    54  43  66 NW15      29.79S
BIG FORK       CLOUDY    52  45  76 W9G20     29.78R
LONGVILLE      CLOUDY    52  45  76 W8        29.82R
GRAND RAPIDS   CLOUDY    53  45  74 NW15G22   29.80R
CRANE LAKE     RAIN      52  50  93 W5        29.72R
COOK           CLOUDY    54  48  82 W14G21    29.73R
WALKER         CLOUDY    52  43  73 W9G21     29.83S
$$
MNZ012-019>021-037-292100-
   Northeast Minnesota

CITY           SKY/WX    TMP DP  RH WIND       PRES   REMARKS
DULUTH         LGT RAIN  55  49  80 NW15G26   29.73R
ELY            CLOUDY    52  48  87 W10G18    29.69R
HIBBING        CLOUDY    53  51  93 W8        29.74S
EVELETH        CLOUDY    53  48  85 W8        29.74S
DULUTH HARBOR  CLOUDY    55  52  88 W24       29.73S
TWO HARBORS    PTSUNNY   61  52  72 NW12G25   29.68S
SILVER BAY     LGT RAIN  59  50  72 W7        29.66R
GRAND MARAIS     N/A     62  51  67 W10G18    29.60R
G MARAIS ARPRT CLOUDY    57  46  67 W9G21     29.63R
$$
MNZ029>031-032-039>041-046>048-054>057-064-292100-
   West Central Minnesota

CITY           SKY/WX    TMP DP  RH WIND       PRES   REMARKS
FERGUS FALLS   PTSUNNY   57  48  72 NW15G25   29.88F
WHEATON        CLOUDY    59  45  58 NW10G20   29.94F
MORRIS         MOSUNNY   61  46  59 NW23      29.91S
ALEXANDRIA     CLOUDY    58  47  66 NW15G23   29.90S
ELBOW LAKE     CLOUDY    55  47  76 W12G24    29.91S
WADENA         CLOUDY    55  45  67 NW13G23   29.87R
GLENWOOD       CLOUDY    55  46  71 NW16G26   29.90R
APPLETON       CLOUDY    57  52  82 NW15G21   29.92S
BENSON         PTSUNNY   61  46  59 N21       29.92F
ORTONVILLE     LGT RAIN  55  50  82 NW14G20   29.94S
MADISON        MOSUNNY   63  50  63 NW20G28   29.94S
WILLMAR        FAIR      57  48  72 NW23G30   29.90F
$$
MNZ033>034-036-042>043-049>051-058-059-292100-
   Central Minnesota

CITY           SKY/WX    TMP DP  RH WIND       PRES   REMARKS
ST CLOUD       CLOUDY    61  48  62 NW14G22   29.82S
SAUK CENTRE    CLOUDY    57  45  64 NW20G29   29.88R
PAYNESVILLE    CLOUDY    58  44  59 NW22G30   29.87S
AITKIN         CLOUDY    57  46  67 W13G18    29.78R
PINE RIVER     CLOUDY    54  45  71 NW10G16   29.87R
BRAINERD       CLOUDY    55  45  68 NW15G23   29.83R
STAPLES        CLOUDY    54  43  66 NW18G24   29.86R
LONG PRAIRIE   CLOUDY    55  43  62 W18G26    29.88R
LITTLE FALLS   CLOUDY    55  43  62 NW17G26   29.84R
LITCHFIELD     MOSUNNY   64  50  59 NW15G28   29.86S
BUFFALO        CLOUDY    62  46  54 W13G21    29.84S
MAPLE LAKE     PTSUNNY   64  51  62 W16G24    29.84S
HUTCHINSON     CLOUDY    64  47  54 W22G31    29.87R
$$
MNZ037-044-045-052-053-292100-
   East Central Minnesota

CITY           SKY/WX    TMP DP  RH WIND       PRES   REMARKS
PRINCETON      CLOUDY    63  48  59 W13G18    29.81S
MORA           MOSUNNY   61  46  59 W10G16    29.80R
CAMBRIDGE      PTSUNNY   64  48  55 W14G20    29.78S
RUSH CITY      CLOUDY    60  53  77 W5        29.78F
MOOSE LAKE     CLOUDY    61  46  59 NW12G21   29.74S
HINCKLEY       CLOUDY    61  46  59 W13G24    29.77R
CLOQUET        PTSUNNY   57  45  62 W13G18    29.75R
MCGREGOR       CLOUDY    59  46  63 W10G17    29.78R
$$
MNZ071>073-080-081-089-090-097-098-292100-
   Southwest Minnesota

CITY           SKY/WX    TMP DP  RH WIND       PRES   REMARKS
MONTEVIDEO     PTSUNNY   63  48  59 N17G24    29.92S
CANBY          PTSUNNY   60  51  71 W22G30    29.95F
MARSHALL       LGT RAIN  55  50  83 NW21      29.94R
REDWOOD FALLS  PTSUNNY   60  46  59 NW15G26   29.90S
OLIVIA         PTSUNNY   61  45  55 NW22G35   29.89S
PIPESTONE      LGT RAIN  57  45  62 NW16G32   29.97S
WINDOM         MOSUNNY   57  45  62 NW26G37   29.94R
WORTHINGTON    CLOUDY    60  46  59 NW26G36   29.95R
JACKSON        CLOUDY    61  45  55 NW16G25   29.94S
TRACY          PTSUNNY   59  53  78 W13G18    29.94F
SLAYTON        CLOUDY    59  46  61 W26G35    29.96S
$$
MNZ065>067-074>077-082>085-091>093-292100-
   South Central Minnesota

CITY           SKY/WX    TMP DP  RH WIND       PRES   REMARKS
MANKATO        LGT RAIN  56  49  77 W18G29    29.89R
NEW ULM        MOSUNNY   61  54  77 W15       29.89F
ST JAMES       PTSUNNY   63  45  51 W21G28    29.91F
FAIRMONT       CLOUDY    60  47  61 NW14      29.92R
GLENCOE        CLOUDY    64  50  59 W21G31    29.85S
FARIBAULT      PTSUNNY   63  46  55 W16G22    29.86R
OWATONNA       PTSUNNY   61  50  67 W21G26    29.87S
WASECA         PTSUNNY   63  45  51 W20G31    29.89R
ALBERT LEA     MOSUNNY   64  48  55 NW18G28   29.89R
$$
MNZ078>079-086>088-094>096-292100-
   Southeast Minnesota

CITY           SKY/WX    TMP DP  RH WIND       PRES   REMARKS
ROCHESTER      LGT RAIN  59  46  62 W31G41    29.87R
RED WING       TSTM      64  45  48 NW13G20   29.80S
STANTON        PTSUNNY   65  47  53 W22       29.82R
DODGE CENTER   PTSUNNY   55  52  88 W21       29.86R
WINONA         PTSUNNY   63  50  63 NW6       29.82F
AUSTIN         CLOUDY    63  46  55 W18G31    29.87R
PRESTON        MOSUNNY   65  45  47 W22       29.85F
$$
ABBREVIATIONS USED IN REMARKS
   TC - TEMPERATURES IN CELSIUS
  WCI - WIND CHILL INDEX
   HX - HEAT INDEX
  VSB - VISIBILITY
$$




USA.gov is the U.S. government's official web portal to all federal, state and local government web resources and services.